Вернуться в каталог

KUIPER-00550

АктивенСвязьVLEO
NORAD 69617·PAYLOAD·🇺🇸 United States

Запущен Jun 17, 2026 с Guiana Space Centre

Loading…

Ближайшие Пролёты (ближайшие 24 часа)

TLE

СвежийSource: CelesTrak SupGP

Эпоха: Sep 14, 2026, 22:20 UTC

1 69617C 26140AB  26257.93065972 -.01127200  00000+0 -63803-1 0  2577
2 69617  51.8808 329.6019 0005986 287.1450 108.6645 15.13621919    15

Отслеживайте KUIPER-00550 в реальном времени с AllMySat

Download on the App Store